[Iaude] MPEC E226: 2022 EU6 [a=1.51,e=0.70,i=7.2,H=25.2]

mpec at marsden.cfa.harvard.edu mpec at marsden.cfa.harvard.edu
Tue Mar 15 08:58:31 EDT 2022


M.P.E.C. 2022-E226                               Issued 2022 March 15, 12:57 UT

     The Minor Planet Electronic Circulars contain information on unusual
         minor planets and routine data on comets.  They are published
    on behalf of Division F of the International Astronomical Union by the
          Minor Planet Center, Smithsonian Astrophysical Observatory,
                          Cambridge, MA 02138, U.S.A.

             Prepared using the Tamkin Foundation Computer Network

                              MPC at CFA.HARVARD.EDU
            URL https://www.minorplanetcenter.net/    ISSN 1523-6714

                                    2022 EU6                                    


Observations:
     K22E06U* C2022 03 14.26374312 12 00.82 +32 02 57.9          19.52GVEE226G96
     K22E06U  C2022 03 14.27661712 11 53.79 +32 08 51.5          19.56GVEE226G96
     K22E06U  C2022 03 14.28175412 11 51.03 +32 11 12.7          19.07GVEE226G96
     K22E06U KC2022 03 14.34260412 11 16.57 +32 39 29.9          19.45GVEE226I52
     K22E06U KC2022 03 14.34316812 11 16.27 +32 39 45.6          19.56GVEE226I52
     K22E06U KC2022 03 14.34373312 11 15.94 +32 40 01.5          19.47GVEE226I52
     K22E06U KC2022 03 14.43960612 10 18.87 +33 26 04.2          19.61GVEE226I52
     K22E06U KC2022 03 14.44017012 10 18.53 +33 26 21.1          20.03GVEE226I52
     K22E06U KC2022 03 14.44073512 10 18.19 +33 26 37.7          19.79GVEE226I52
     K22E06U hC2022 03 14.89441912 05 43.72 +37 42 56.6          19.4 GVEE226L01
     K22E06U BC2022 03 14.89601112 05 42.45 +37 43 57.6          19.2 GVEE226L01
     K22E06U pC2022 03 14.89760312 05 41.10 +37 45 01.0          19.6 GVEE226L01
     K22E06U pC2022 03 14.89922012 05 39.78 +37 46 03.8          19.3 GVEE226L01
     K22E06U pC2022 03 14.90106012 05 38.17 +37 47 16.0          19.4 GVEE226L01
     K22E06U mC2022 03 15.23876212 00 32.19 +41 51 08.6          19.17GVEE226I52
     K22E06U mC2022 03 15.23892712 00 31.96 +41 51 16.8          18.96GVEE226I52
     K22E06U mC2022 03 15.23909212 00 31.79 +41 51 24.8          18.84GVEE226I52
     K22E06U mC2022 03 15.23925612 00 31.57 +41 51 32.8          18.87GVEE226I52

Observer details:
G96 Mt. Lemmon Survey.  Observers A. Serrano, K. W. Wierzchos.  Measurers E.
    J. Christensen, G. A. Farneth, J. B. Fazekas, D. C. Fuls, A. R. Gibbs, A.
    D. Grauer, H. Groeller, R. A. Kowalski, S. M. Larson, G. J. Leonard, D.
    Rankin, R. L. Seaman, A. Serrano, F. C. Shelly, K. W. Wierzchos.  1.5-m
    reflector + 10K CCD.
I52 Steward Observatory, Mt. Lemmon Station.  Observers A. R. Gibbs, R. A.
    Kowalski.  Measurers E. J. Christensen, G. A. Farneth, J. B. Fazekas, D.
    C. Fuls, A. R. Gibbs, A. D. Grauer, H. Groeller, R. A. Kowalski, S. M.
    Larson, G. J. Leonard, D. Rankin, R. L. Seaman, A. Serrano, F. C. Shelly,
    K. W. Wierzchos, J. K. Hogan.
L01 Visnjan Observatory, Tican.  Observer K. Korlevic.  1.0-m f/2.9 reflector
    + CCD.

Orbital elements:
2022 EU6                                                 Earth MOID = 0.0161 AU
Epoch 2022 Jan. 21.0 TT = JDT 2459600.5                 Veres                   
M 304.67758              (2000.0)            P               Q                  
n   0.53290906     Peri.  281.44315     +0.24944106     +0.96836715             
a   1.5067250      Node     3.02569     -0.83210504     +0.21784424             
e   0.6995882      Incl.    7.23822     -0.49535882     +0.12169207             
P   1.85           H   25.24          G   0.15           U   8                  
Residuals in seconds of arc
220314 G96  0.0   0.5-    220314 I52  0.0   0.1+    220314 L01  0.6+  0.4-
220314 G96  0.4-  0.3+    220314 I52  0.1+  0.4+    220314 L01  0.0   0.2-
220314 G96  0.3+  0.2+    220314 I52  0.1+  0.4+    220315 I52  0.2+  0.2-
220314 I52  0.2-  0.7+    220314 L01  0.8-  0.2+    220315 I52  0.2-  0.1+
220314 I52  0.2+  0.5+    220314 L01  0.0   1.0-    220315 I52  0.1+  0.1+
220314 I52  0.1+  0.4+    220314 L01  0.0   0.1+    220315 I52  0.2-  0.1+

Ephemeris:
2022 EU6                 a,e,i = 1.51, 0.70, 7                   q = 0.4526
Date    TT    R. A. (2000) Decl.     Delta      r    Elong.  Phase     V
2022 02 13    12 22 42.9 +08 30 34   0.4596  1.3753   141.0    26.8    25.5
...
2022 02 28    12 28 04.9 +10 40 54   0.2367  1.2075   153.9    21.2    23.6
...
2022 03 08    12 26 40.2 +14 55 46   0.1260  1.1112   159.3    18.4    21.9
...
2022 03 14    12 13 47.8 +30 11 48   0.04770 1.0360   151.0    27.7    19.9
2022 03 15    12 04 11.1 +38 53 28   0.03594 1.0232   143.0    35.8    19.5
2022 03 16    11 37 27.4 +54 51 54   0.02584 1.0103   127.1    51.7    19.2
...
2022 03 22    00 46 34.5 +10 40 20   0.06684 0.9317    14.8   164.2    31.9
...
2022 03 30    00 38 04.7 +00 11 52   0.1751  0.8238     3.6   175.6
...
2022 04 14    00 37 14.8 -02 11 52   0.4117  0.6209    17.0   151.8    31.1

M. P. C. Staff               (C) Copyright 2022 MPC           M.P.E.C. 2022-E226




More information about the Iaude mailing list